Provincetown, Massachusetts, United States (02657)
Lat: 42.06N, Lon: 70.18W
Wx Zone: MAZ022
Local Info
Past Weather Observations for Today

NOTE: This archive is for the closest National Weather Service station to Provincetown. Information may differ from the station used for current weather conditions.

Click here for Long-term Archive

Time Weather Temperature Dewpoint Humidity Pressure Winds Precip Visibility
12:15
Overcast
70°F / 21°C 63°F / 17°C 78% 30.09 in
(1019 mb)
Calm - 10SM
11:55
Overcast
70°F / 21°C 63°F / 17°C 78% 30.09 in
(1019 mb)
Calm - 10SM
11:35
Mostly Cloudy
70°F / 21°C 63°F / 17°C 78% 30.09 in
(1019 mb)
Calm - 10SM
11:15
Mostly Cloudy
70°F / 21°C 63°F / 17°C 78% 30.09 in
(1019 mb)
Calm - 10SM
10:55
Mostly Cloudy
70°F / 21°C 63°F / 17°C 78% 30.09 in
(1019 mb)
Calm 0.01 in
(0.25 mm)
10SM
10:35
Mostly Cloudy
70°F / 21°C 63°F / 17°C 78% 30.09 in
(1019 mb)
Calm 0.01 in
(0.25 mm)
10SM
10:15
Mostly Cloudy
72°F / 22°C 63°F / 17°C 73% 30.09 in
(1019 mb)
Calm 0.01 in
(0.25 mm)
10SM
09:55
Mostly Cloudy
72°F / 22°C 63°F / 17°C 73% 30.09 in
(1019 mb)
Calm 0.01 in
(0.25 mm)
10SM
09:35
Mostly Cloudy
72°F / 22°C 63°F / 17°C 73% 30.09 in
(1019 mb)
Calm 0.01 in
(0.25 mm)
10SM
09:15
Mostly Cloudy
70°F / 21°C 63°F / 17°C 78% 30.09 in
(1019 mb)
Calm 0.01 in
(0.25 mm)
10SM
08:55
Mostly Cloudy
70°F / 21°C 63°F / 17°C 78% 30.09 in
(1019 mb)
Calm - 10SM
08:35
Mostly Cloudy
70°F / 21°C 64°F / 18°C 83% 30.09 in
(1019 mb)
Calm - 10SM
08:15
Mostly Cloudy
70°F / 21°C 64°F / 18°C 83% 30.09 in
(1019 mb)
Calm - 10SM
07:55
Partly Cloudy
70°F / 21°C 64°F / 18°C 83% 30.09 in
(1019 mb)
Calm 0.01 in
(0.25 mm)
10SM
07:35
Mostly Cloudy
72°F / 22°C 64°F / 18°C 78% 30.09 in
(1019 mb)
Calm - 10SM
07:15
Clear
70°F / 21°C 64°F / 18°C 83% 30.09 in
(1019 mb)
Calm - 10SM
06:55
Clear
70°F / 21°C 64°F / 18°C 83% 30.09 in
(1019 mb)
Calm - 10SM
06:35
Clear
66°F / 19°C 64°F / 18°C 94% 30.09 in
(1019 mb)
Calm - 10SM
06:15
Clear
66°F / 19°C 64°F / 18°C 94% 30.09 in
(1019 mb)
Calm - 10SM
05:55
Clear
64°F / 18°C 63°F / 17°C 94% 30.09 in
(1019 mb)
Calm 0.01 in
(0.25 mm)
10SM
05:35
Clear
63°F / 17°C 61°F / 16°C 94% 30.09 in
(1019 mb)
Calm - 10SM
05:15
Partly Cloudy
64°F / 18°C 63°F / 17°C 94% 30.09 in
(1019 mb)
Calm - 10SM
04:55
Mostly Cloudy
64°F / 18°C 63°F / 17°C 94% 30.09 in
(1019 mb)
Calm - 10SM
04:35
Partly Cloudy
64°F / 18°C 61°F / 16°C 88% 30.09 in
(1019 mb)
Calm - 10SM
04:15
Mostly Cloudy
64°F / 18°C 61°F / 16°C 88% 30.06 in
(1018 mb)
Calm - 10SM
03:55
Mostly Cloudy
64°F / 18°C 61°F / 16°C 88% 30.06 in
(1018 mb)
Calm - 10SM
03:35
Mostly Cloudy
64°F / 18°C 61°F / 16°C 88% 30.06 in
(1018 mb)
Calm - 10SM
03:15
Mostly Cloudy
64°F / 18°C 61°F / 16°C 88% 30.06 in
(1018 mb)
Calm - 10SM
02:55
Overcast
64°F / 18°C 63°F / 17°C 94% 30.06 in
(1018 mb)
Calm - 10SM
02:35
Overcast
64°F / 18°C 63°F / 17°C 94% 30.06 in
(1018 mb)
Calm - 10SM
02:15
Overcast
64°F / 18°C 63°F / 17°C 94% 30.06 in
(1018 mb)
Calm - 10SM
01:55
Overcast
66°F / 19°C 63°F / 17°C 88% 30.06 in
(1018 mb)
Calm 0.01 in
(0.25 mm)
10SM
01:35
Overcast
66°F / 19°C 63°F / 17°C 88% 30.06 in
(1018 mb)
Calm 0.01 in
(0.25 mm)
10SM
01:15
Overcast
64°F / 18°C 63°F / 17°C 94% 30.06 in
(1018 mb)
Calm - 10SM
00:55
Overcast
64°F / 18°C 63°F / 17°C 94% 30.06 in
(1018 mb)
Calm 0.01 in
(0.25 mm)
10SM
00:35
Mostly Cloudy
64°F / 18°C 61°F / 16°C 88% 30.06 in
(1018 mb)
Calm - 10SM
00:15
Clear
63°F / 17°C 61°F / 16°C 94% 30.06 in
(1018 mb)
Calm - 10SM
Time Weather Temperature Dewpoint Humidity Pressure Winds Precip Visibility


Weather for websites

WeatherForYou.com, LLC is not responsible for any damages or problems caused by this service. Current weather conditions are obtained from the closest station including government and personal stations which may have varying degrees of accuracy. Weather forecasts are derived from the NOAA NDFD. Like all things, this site belongs to Jesus Christ... He just trusts me to maintain it. If you have any questions or comments email webmaster@weatherforyou.com

Copyright © 2014, WeatherForYou.com LLC. All rights reserved.